User: anonymous   Login
Location: Bonac
(42.8765°N, 0.9753°E)
Time: 01:43:16
(UTC+00:00)
Language:

Cosmos 2056 Rocket - Orbit

View from above orbital plane
View from above orbital plane
View from above satellite
View from above satellite

Ground track
Ground track

The orbit is defined by the following mean orbital elements,

1 20433U          26073.58495483 +.00000000 +00000-0 +12140-3 0 00000
2 20433  74.0339 251.6995 0040624 321.0256  99.0262 14.37505519    00
Epoch (UTC): 14 March 2026 14:02:20
Eccentricity: 0.0040624
inclination: 74.0339°
perigee height: 738 km
apogee height: 796 km
right ascension of ascending node: 251.6995°
argument of perigee: 321.0256°
revolutions per day: 14.37505519
mean anomaly at epoch: 99.0262°

The dashed part of the orbit path shows where the satellite is in the earth's shadow,  

DLR